Location: Unspecified
(35.6961°N, 0.0000°E)
Time: 11:28:08
(UTC+00:00)

Vanguard 2 Rocket - Pass Details

Date: 01 June 2019
Orbit: 555 x 3326 km, 32.9° (Epoch: 25 June)

Event Time Altitude Azimuth Distance (km) Brightness Sun altitude
Rises 07:20:08 0° 278° (W) 7,260 11.0 28.9°
Reaches altitude 10° 07:25:19 10° 276° (W) 6,087 10.7 30.0°
Maximum altitude 07:43:21 70° 198° (SSW) 2,435 9.5 33.6°
Drops below altitude 10° 07:53:59 10° 117° (ESE) 3,806 11.0 35.8°
Sets 07:56:28 0° 115° (ESE) 4,497 11.2 36.3°
